Zurück zum Katalog

FENGYUN 1C DEB

AktivSSO
NORAD 29789·DEBRIS·🇨🇳 China

Gestartet May 10, 1999 von Taiyuan Satellite Launch Center

Loading…

Nächste Überflüge (nächste 24 Stunden)

TLE

AktuellSource: Space-Track

Epoche: Sep 13, 2026, 17:38 UTC

1 29789U 99025CF  26256.73480110  .00000854  00000-0  98857-3 0  9992
2 29789  99.4651  73.1978 0295593 304.1930  66.6085 13.54926519967119

Verfolge FENGYUN 1C DEB in Echtzeit mit AllMySat

Download on the App Store